[[{"header":{"parameterUnit":"m.s-1","parameterCategory":1,"la1":30.2991,"la2":30.254,"lo1":-89.0895,"lo2":-89.0444,"dy":0.0017,"dx":0.0017,"nx":28,"ny":28,"refTime":"2024-07-03T09:00:00:Z","depth":0,"parameterNumber":2,"parameterNumberName":"U-component_of_WINDS"},"data":[0,0,0,0,0,0,0,0,0,0,0,0,0,0,0,0,0,0,0,0,0,0,0,0,0,0,0,0,0,0,0,0,0,0,0,0,0,0,0,0,0,0,0,0,0,0,0,0,0,0,0,0,0,0,0,0,0,0,2.4426,2.4427,0,2.4508,2.4509,2.451,2.449,2.4489,2.4487,2.4486,2.4569,2.4572,2.4576,0,0,0,0,0,0,0,0,0,0,0,0,0,2.4248,2.4251,2.4426,2.4427,2.4428,2.4508,2.4509,2.4511,2.4491,2.4489,2.4487,2.4485,2.4567,2.4572,2.4576,0,0,0,0,0,0,0,0,0,0,0,0,0,2.4327,2.4252,2.4426,2.4428,2.4429,2.4508,2.4509,2.4511,2.4491,2.4489,2.4486,2.4484,2.4566,2.4571,2.4577,2.4659,0,0,2.4594,2.4596,0,0,0,0,0,0,0,0,2.4323,2.4334,2.4426,2.4428,2.4429,2.4487,2.4477,2.456,2.4492,2.4467,2.4485,2.4483,2.4543,2.455,2.4571,2.4663,2.4666,2.4594,2.4598,2.46,2.4601,0,0,0,0,0,0,0,2.4317,2.433,2.4458,2.4428,2.4429,2.4423,2.4432,2.4493,2.4517,2.4469,2.4468,2.4478,2.4543,2.4566,2.4573,2.4668,2.4594,2.4599,2.4602,2.4605,2.4827,2.483,0,0,0,0,0,0,2.4311,2.4325,2.4456,2.4461,2.4369,2.4428,2.4438,2.447,2.4517,2.4522,2.448,2.4477,2.4557,2.4566,2.4576,2.4672,2.46,2.4605,2.4608,2.4825,2.4828,2.4831,0,0,0,0,0,0,2.4307,2.4323,2.4452,2.4393,2.4409,2.4434,2.4471,2.4473,2.4496,2.4525,2.4529,2.4498,2.4556,2.4568,2.4638,2.4675,2.4608,2.4613,2.4822,2.4826,2.4829,2.4867,0,0,0,0,0,0,2.4302,2.4321,2.4354,2.4394,2.4412,2.4514,2.4473,2.4477,2.4506,2.4502,2.4543,2.4548,2.4555,2.4629,2.4643,2.4681,2.4617,2.4818,2.4823,2.4828,2.4863,2.4872,2.488,0,0,0,0,0,2.4296,2.4362,2.4355,2.4371,2.4453,2.4516,2.4527,2.4534,2.4509,2.454,2.4559,2.4547,2.4669,2.4637,2.4652,2.4692,2.4816,2.4822,2.4828,2.4859,2.487,2.488,0,0,0,0,0,0,2.4325,2.4367,2.4361,2.4442,2.4475,2.4513,2.4553,2.4546,2.4587,2.4582,2.4589,2.4599,2.4669,2.4688,2.4651,2.4773,2.4739,2.4748,2.4757,2.4768,2.4777,2.4769,2.4622,0,0,0,0,0,2.4341,2.439,2.4423,2.4491,2.4509,2.4528,2.4556,2.4558,2.4594,2.4608,2.4631,2.4665,2.4711,2.4741,2.4785,2.4866,2.4873,2.4901,2.491,2.4917,2.4924,2.4965,2.4977,2.485,2.485,2.485,0,0,2.4374,2.4403,2.4433,2.4498,2.4524,2.4573,2.454,2.4594,2.4629,2.4616,2.4682,2.4701,2.4739,2.4814,2.4848,2.4832,2.4961,2.4924,2.4929,2.4933,2.4972,2.4984,2.4995,2.4854,2.4853,2.4852,0,0,2.4459,2.4487,2.4545,2.4572,2.4613,2.4625,2.4639,2.4678,2.4689,2.4756,2.4746,2.4788,2.4868,2.4895,2.4919,2.5012,2.5001,2.5026,2.507,2.511,2.512,2.5129,2.5159,2.517,2.5034,2.5034,2.5034,0,2.4495,2.4568,2.4576,2.463,2.4657,2.4647,2.4705,2.4731,2.4784,2.4802,2.4784,2.4882,2.4907,2.4986,2.5009,2.503,2.5044,2.5021,2.5118,2.5127,2.5135,2.5164,2.5176,2.5036,2.5036,2.5036,2.5036,0,2.4609,2.466,2.4702,2.4752,2.4785,2.4841,2.4855,2.4887,2.4887,2.49,2.4967,2.4998,2.5046,2.5066,2.5066,2.5145,2.5133,2.5117,2.5082,2.515,2.5177,2.5188,2.504,2.5039,2.5038,2.5038,0,0,2.4714,2.4767,2.4782,2.4803,2.4847,2.4886,2.4941,2.4988,2.5014,2.5051,2.5095,2.5162,2.5146,2.5173,2.5177,2.5212,2.528,2.5191,2.5192,2.5204,2.5365,2.5375,2.5387,2.5274,2.5276,2.5278,2.536,0,2.48,2.4895,2.4903,2.4989,2.5034,2.5025,2.5072,2.5103,2.5117,2.5157,2.5173,2.5219,2.5196,2.5212,2.5247,2.5264,2.5312,2.5259,2.5313,2.5314,2.53,2.5402,2.5414,2.549,2.5371,2.5373,2.5375,0,2.4913,2.4952,2.5042,2.5077,2.5096,2.5138,2.5181,2.522,2.5255,2.5262,2.5292,2.529,2.5344,2.5309,2.5382,2.5346,2.5369,2.538,2.5383,2.5386,2.5347,2.5405,2.5515,2.5525,2.5392,2.539,2.5389,0,2.4976,2.5052,2.5115,2.5134,2.5177,2.5206,2.5225,2.5257,2.5285,2.5322,2.5339,2.5383,2.5406,2.5439,2.5448,2.5423,2.552,2.5487,2.5526,2.5525,2.5545,2.5543,2.5656,2.5564,2.5564,2.5564,2.5564,0,2.507,2.5124,2.5143,2.5182,2.5242,2.525,2.5309,2.5326,2.5355,2.5395,2.5391,2.5429,2.544,2.5479,2.5487,2.5544,2.5556,2.5562,2.5562,2.556,2.5559,2.5573,2.5567,2.5567,2.5566,2.5566,2.5565,0,2.515,2.5165,2.5232,2.5267,2.5277,2.532,2.5349,2.5385,2.5399,2.545,2.5462,2.5483,2.5529,2.5541,2.5597,2.5602,2.5668,2.5666,2.5657,2.5656,2.5693,2.5688,2.5817,2.5833,2.5733,2.5734,2.5735,0,2.5207,2.5249,2.5288,2.5315,2.5335,2.5379,2.5406,2.5415,2.5444,2.5485,2.5515,2.5561,2.5597,2.5671,2.569,2.5732,2.5728,2.5771,2.5735,2.573,2.5725,2.5721,2.5724,2.5777,2.5778,2.5779,2.5779,0,2.5306,2.5311,2.5351,2.5394,2.5427,2.546,2.5493,2.5515,2.5528,2.5561,2.5607,2.5636,2.5692,2.5736,2.5778,2.5796,2.5789,2.5791,2.5801,2.5798,2.579,2.5792,2.5672,2.5787,2.5787,2.5786,2.5786,2.5785,2.5375,2.541,2.5442,2.5487,2.5512,2.5542,2.5576,2.5594,2.5633,2.5679,2.5683,2.5732,2.5764,2.5819,2.584,2.5878,2.5865,2.5882,2.5885,2.5888,2.589,2.5786,2.5886,2.5886,2.5886,2.5886,2.5886,0,2.5471,2.5491,2.5532,2.5576,2.5611,2.5602,2.5637,2.5666,2.571,2.574,2.5776,2.5828,2.5871,2.5893,2.5935,2.5961,2.5959,2.5971,2.5968,2.5972,2.59,2.5886,2.5972,2.5972,2.5972,2.5972,2.5972,2.5972,2.5525,2.5583,2.5592,2.5662,2.5682,2.5731,2.5751,2.5778,2.5801,2.586,2.5895,2.591,2.5936,2.5979,2.6017,2.6022,2.6037,2.605,2.6054,2.5986,2.5977,2.5969,2.5954,2.6054,2.6054,2.6122,2.6122,2.6123]},{"header":{"parameterUnit":"m.s-1","parameterCategory":1,"la1":30.2991,"la2":30.254,"lo1":-89.0895,"lo2":-89.0444,"dy":0.0017,"dx":0.0017,"nx":28,"ny":28,"refTime":"2024-07-03T09:00:00:Z","depth":0,"parameterNumber":3,"parameterNumberName":"V-component_of_WINDS"},"data":[0,0,0,0,0,0,0,0,0,0,0,0,0,0,0,0,0,0,0,0,0,0,0,0,0,0,0,0,0,0,0,0,0,0,0,0,0,0,0,0,0,0,0,0,0,0,0,0,0,0,0,0,0,0,0,0,0,0,3.573,3.5731,0,3.5793,3.5793,3.5794,3.5763,3.5762,3.576,3.5758,3.5818,3.5821,3.5824,0,0,0,0,0,0,0,0,0,0,0,0,0,3.5579,3.5582,3.573,3.5731,3.5732,3.5793,3.5793,3.5794,3.5763,3.5761,3.5759,3.5758,3.5817,3.5821,3.5824,0,0,0,0,0,0,0,0,0,0,0,0,0,3.5643,3.5583,3.573,3.5724,3.5724,3.5792,3.5794,3.5795,3.5764,3.5761,3.5759,3.5757,3.5816,3.582,3.5825,3.5902,0,0,3.5839,3.5841,0,0,0,0,0,0,0,0,3.5639,3.5649,3.5724,3.5724,3.5725,3.5768,3.5762,3.583,3.5764,3.5749,3.5758,3.5756,3.5803,3.5809,3.5825,3.5905,3.5907,3.584,3.5842,3.5844,3.5846,0,0,0,0,0,0,0,3.5635,3.5646,3.5755,3.5725,3.5725,3.5716,3.5723,3.5775,3.5788,3.575,3.5748,3.5756,3.5803,3.5821,3.5827,3.5908,3.5839,3.5844,3.5846,3.5848,3.6051,3.6054,0,0,0,0,0,0,3.5631,3.5642,3.5753,3.5757,3.5675,3.5721,3.5728,3.5756,3.5788,3.579,3.5758,3.5754,3.5814,3.5821,3.5829,3.5919,3.5844,3.5849,3.5851,3.6049,3.6052,3.6055,0,0,0,0,0,0,3.5628,3.5642,3.575,3.5699,3.5712,3.5726,3.5758,3.5759,3.5777,3.5794,3.5796,3.5774,3.5813,3.5822,3.5884,3.5921,3.5851,3.5855,3.6046,3.605,3.6053,3.6102,0,0,0,0,0,0,3.5624,3.5641,3.5672,3.57,3.5715,3.5806,3.576,3.5762,3.5786,3.5782,3.581,3.5812,3.5812,3.5877,3.5888,3.5926,3.5859,3.6042,3.6047,3.6052,3.6097,3.6107,3.6116,0,0,0,0,0,3.5619,3.5682,3.5673,3.5687,3.5754,3.5808,3.5817,3.5816,3.5789,3.5819,3.5829,3.5811,3.5915,3.5884,3.5896,3.5936,3.604,3.6046,3.6052,3.6093,3.6105,3.6115,0,0,0,0,0,0,3.5657,3.5686,3.5676,3.5751,3.5778,3.5803,3.5841,3.5829,3.5863,3.5857,3.5853,3.586,3.5923,3.5936,3.59,3.6011,3.5973,3.5982,3.6,3.6012,3.6021,3.6016,3.5862,0,0,0,0,0,3.5674,3.5718,3.574,3.5804,3.5818,3.5827,3.5851,3.5848,3.5875,3.5885,3.59,3.5925,3.5963,3.5988,3.6025,3.6099,3.6103,3.6132,3.6141,3.6149,3.6156,3.6194,3.6206,3.6074,3.6074,3.6074,0,0,3.571,3.5731,3.5759,3.5812,3.5832,3.5875,3.5837,3.5884,3.5916,3.5892,3.5951,3.5963,3.599,3.6058,3.6089,3.607,3.6194,3.6156,3.6162,3.6165,3.6201,3.6214,3.6225,3.6078,3.6077,3.6077,0,0,3.5797,3.5819,3.5873,3.5894,3.5925,3.5931,3.5944,3.5971,3.5978,3.6038,3.602,3.6057,3.6123,3.6143,3.6162,3.6255,3.6238,3.6266,3.6314,3.6351,3.6362,3.6371,3.6402,3.6414,3.6274,3.6274,3.6274,0,3.5837,3.5903,3.5902,3.5951,3.5974,3.5956,3.6009,3.6029,3.607,3.6085,3.6065,3.6146,3.6164,3.6235,3.6258,3.6274,3.6287,3.6263,3.6361,3.637,3.6378,3.6408,3.642,3.6277,3.6276,3.6276,3.6276,0,3.5949,3.5995,3.6035,3.6076,3.6104,3.6155,3.616,3.6187,3.6182,3.6189,3.6248,3.6269,3.6308,3.6324,3.6319,3.6394,3.6382,3.6361,3.6323,3.6394,3.6422,3.6433,3.6281,3.628,3.6279,3.6278,0,0,3.6062,3.6102,3.6116,3.6134,3.6166,3.62,3.625,3.6289,3.6312,3.634,3.638,3.6436,3.6416,3.6438,3.6434,3.6467,3.6537,3.6442,3.6442,3.6457,3.6618,3.6633,3.6646,3.6527,3.6529,3.6531,3.6615,0,3.615,3.6238,3.6238,3.6318,3.6359,3.6341,3.6384,3.6407,3.6415,3.6449,3.6457,3.6496,3.6469,3.6481,3.6513,3.6522,3.6569,3.6516,3.6561,3.6563,3.6554,3.6661,3.6676,3.6755,3.6626,3.6628,3.6629,0,3.6264,3.6297,3.6381,3.6407,3.6424,3.6462,3.6497,3.6531,3.6556,3.6559,3.6583,3.6574,3.6621,3.6583,3.6647,3.6611,3.663,3.6637,3.664,3.6643,3.66,3.6665,3.6781,3.6792,3.6647,3.6646,3.6644,0,3.6335,3.6401,3.6459,3.6475,3.6506,3.6533,3.6547,3.657,3.6593,3.6623,3.6638,3.6673,3.6691,3.6718,3.6717,3.669,3.6782,3.6744,3.6784,3.6784,3.6803,3.6802,3.6922,3.6818,3.6818,3.6817,3.6817,0,3.6432,3.6484,3.6491,3.6527,3.6584,3.6583,3.6638,3.665,3.667,3.6706,3.6693,3.6727,3.6726,3.6759,3.6759,3.6811,3.682,3.6822,3.6822,3.6823,3.6822,3.6834,3.6828,3.6821,3.682,3.6819,3.6819,0,3.6521,3.6528,3.6591,3.6615,3.6622,3.6663,3.6683,3.6716,3.6722,3.6768,3.6778,3.6788,3.6827,3.683,3.6874,3.6874,3.6937,3.6931,3.6929,3.6927,3.6966,3.6962,3.7097,3.7113,3.7,3.7001,3.7002,0,3.6582,3.6621,3.665,3.6674,3.669,3.6728,3.6752,3.6752,3.6776,3.6807,3.6836,3.6874,3.6904,3.6966,3.6976,3.7009,3.7003,3.7048,3.7008,3.7007,3.7001,3.6998,3.7001,3.7055,3.7056,3.7057,3.7058,0,3.6688,3.669,3.6725,3.6761,3.6789,3.6817,3.6844,3.6863,3.6866,3.6894,3.6934,3.6957,3.7003,3.704,3.7073,3.7085,3.7071,3.7071,3.7082,3.7082,3.7079,3.7079,3.6948,3.7068,3.7067,3.7066,3.7065,3.7065,3.6763,3.6797,3.6822,3.6861,3.6881,3.6905,3.6937,3.6948,3.6982,3.7019,3.7017,3.7061,3.7083,3.7126,3.714,3.7173,3.7158,3.7174,3.7177,3.7181,3.7184,3.7075,3.7179,3.7179,3.7179,3.7178,3.7178,0,3.6867,3.6883,3.6919,3.6956,3.6986,3.6973,3.7,3.7026,3.7065,3.7088,3.7117,3.7162,3.7198,3.721,3.7244,3.7268,3.7262,3.7276,3.7274,3.7276,3.7197,3.7183,3.728,3.728,3.728,3.728,3.728,3.728,3.6925,3.698,3.6985,3.7049,3.7063,3.7107,3.7124,3.7145,3.7163,3.7214,3.7244,3.7253,3.727,3.7305,3.7336,3.7339,3.7351,3.7367,3.7367,3.7292,3.7282,3.7272,3.7259,3.737,3.7371,3.7443,3.7444,3.7445]}]]